COSMOS 1023

Satellite information

Favourite Embed

Satellite Type and Status

PAYLOADIN ORBIT

Key statistics

Satellite COSMOS 1023 at a glance.

Uptime

17121

Days in orbit

Revolutions

≈ 14.4

Per day

Orbit

LEO

Low Earth Orbit

Inclination

74.1

Latest

Satellite identification and parameters

Extended collection of information and parameters for COSMOS 1023.

Object identification

Identified? True

Debris? False

Object name: COSMOS 1023

International designator: 1978-063A

Object number (NORAD): 10961

Object ID (CCSDS): 10961

Country: COMMONWEALTH OF INDEPENDENT STATES (CIS)

Current information (Y/N): Y

RCS size: LARGE

Orbital parameters

Period: 100.18 minutes

Inclination: 74.0737 deg

SMA: 7145.188 km

Apoapsis: 778.371 km

Periapsis: 755.735 km

RAAN: 116.844 deg

Eccentricy: 0.001584

Argument of periapsis: 13.9837 deg

Mean anomaly: 346.1752 deg

Mean motion: 14.37415382 rev/day

Mean motion (dot): 0.00000296 rev/day2

B* drag term: 0.00010773 1/REarth

Two-line elements (TLE)

Creation date: May 5, 2025, 2:26 p.m.

Reference frame: TEME

Reference center: EARTH

Epoch: May 5, 2025, 10:38 a.m. UTC

TLE line 0: 0 COSMOS 1023

TLE line 1: 1 10961U 78063A 25125.44362256 .00000296 00000-0 10773-3 0 9996

TLE line 2: 2 10961 74.0737 116.8440 0015840 13.9837 346.1752 14.37415382454616

Live tracking on map

Real-time ground track for satellite COSMOS 1023.

In-orbit conjunctions

A list of the most updated potential collisions computed for object COSMOS 1023.

Target Orbit TCA Probability of collision Miss distance Type
SCOUT X-4 DEB LEO 2025-04-22 03:48:37 0.0002999219 365.0 (m) DEBRIS
CZ-6A DEB LEO 2025-04-21 08:27:21 0.0001541561 759.0 (m) DEBRIS
COSMOS 2251 DEB LEO 2025-04-08 09:19:11 0.0002397236 691.0 (m) DEBRIS
COSMOS 2251 DEB LEO 2025-03-11 13:36:43 0.0007343728 102.0 (m) DEBRIS
CZ-6A DEB SSO 2025-02-28 05:35:34 0.0001613839 248.0 (m) DEBRIS

Associated space launch

Military communications satellite

COSMOS 1023 was lifted into orbit during the mission ‘Kosmos-3M | Strela-2M 18’, on board a Kosmos-3M space rocket.

The launch took place on June 21, 1978, 9:27 a.m. from 132/1 (132L).

For more information about the launch, click the button.

Launch to space Kosmos-3M | Strela-2M 18
Kosmos-3M | Strela-2M 18

Agency: N/A

Status: Launch Successful

Launch date: June 21, 1978, 9:27 a.m. UTC

Rocket: Kosmos-3M

Launch pad: 132/1 (132L)

Location: Plesetsk Cosmodrome, Russian Federation

...

Latest news about this satellite

There are no fresh news available about this satellite. Check back as we update our databases every day.


Newsletter sign-up

Weekly statistics, charts and insights to help you stay on top of the space industry.